GW5178 Weather Reports


Display with metric or nautical units.
time (UTC)temp
F
wind
direction
speed
MPH
gust
MPH
rain 1hr
in
rain 24hr
in
rain mn
in
humidity
%
barometer
mb
20260506073038 40 57 4.0 4.0 0.00 0.00 0.00 89 1015.8
20260506072535 42 230 2.0 3.0 0.00 0.00 0.00 89 1015.4
20260506072033 42 296 0.0 2.0 0.00 0.00 0.00 89 1015.4
20260506071531 42 319 3.0 3.0 0.00 0.00 0.00 90 1015.6
20260506071028 42 218 0.0 3.0 0.00 0.00 0.00 90 1015.3
20260506070525 42 261 2.0 3.0 0.00 0.00 0.00 90 1015.5
20260506062502 43 237 2.0 3.0 0.00 0.07 0.07 89 1014.7
20260506061959 43 269 2.0 2.0 0.00 0.07 0.07 89 1014.6
20260506061455 43 275 0.0 2.0 0.00 0.07 0.07 89 1014.7
20260506060953 43 248 2.0 3.0 0.00 0.07 0.07 88 1014.8
20260506060451 44 227 0.0 1.0 0.00 0.07 0.07 88 1014.8
20260506050920 47 190 3.0 4.0 0.00 0.07 0.07 86 1014.6
20260506050417 47 189 2.0 5.0 0.00 0.07 0.07 86 1014.5
20260506044908 47 182 2.0 4.0 0.00 0.07 0.07 85 1014.5
20260506044406 47 163 2.0 3.0 0.00 0.07 0.07 85 1014.6
20260506043902 48 141 2.0 3.0 0.00 0.07 0.07 84 1014.5
20260506043359 48 139 1.0 2.0 0.00 0.07 0.07 84 1014.5
20260506042858 48 154 0.0 3.0 0.00 0.07 0.07 83 1014.5
20260506042357 48 190 3.0 5.0 0.00 0.07 0.07 84 1014.4
20260506041855 48 196 4.0 4.0 0.00 0.07 0.07 84 1014.1
20260506041354 48 192 2.0 4.0 0.00 0.07 0.07 84 1014.1
20260506040849 49 196 3.0 6.0 0.00 0.07 0.07 83 1013.9
20260506040346 49 190 4.0 5.0 0.00 0.07 0.07 83 1013.5
20260506035842 49 201 3.0 5.0 0.00 0.07 0.07 83 1013.7
20260506035340 49 192 4.0 5.0 0.00 0.07 0.07 82 1013.3
20260506034837 49 211 3.0 4.0 0.00 0.07 0.07 83 1013.2
20260506034334 49 200 2.0 4.0 0.00 0.07 0.07 82 1013.3
20260506033831 49 190 2.0 4.0 0.00 0.07 0.07 82 1013.2
20260506033328 50 192 2.0 5.0 0.00 0.07 0.07 82 1013.1
20260506032825 50 197 3.0 4.0 0.00 0.07 0.07 81 1013.1
20260506032322 51 168 2.0 5.0 0.00 0.07 0.07 79 1012.7
20260506031819 50 205 2.0 3.0 0.00 0.07 0.07 80 1012.5
20260506031316 51 181 3.0 3.0 0.00 0.07 0.07 78 1012.5
20260506030813 51 233 5.0 6.0 0.00 0.07 0.07 77 1012.5
20260506030311 52 231 5.0 5.0 0.00 0.07 0.07 77 1012.5
20260506025808 52 232 4.0 5.0 0.00 0.07 0.07 76 1012.3
20260506025305 52 234 4.0 6.0 0.00 0.07 0.07 76 1012.4
20260506024802 52 221 4.0 9.0 0.00 0.07 0.07 77 1012.1
20260506024258 52 247 5.0 7.0 0.00 0.07 0.07 78 1012.4
20260506023754 53 237 5.0 9.0 0.00 0.07 0.07 77 1012.1
20260506023251 53 224 5.0 6.0 0.00 0.07 0.07 77 1012.1
20260506022748 53 225 5.0 7.0 0.00 0.07 0.07 76 1012.0
20260506022246 54 236 5.0 8.0 0.00 0.07 0.07 75 1011.8
20260506021744 55 216 6.0 8.0 0.00 0.07 0.07 73 1012.0
20260506021240 55 233 8.0 11.0 0.00 0.07 0.07 72 1012.0
20260506020737 55 202 5.0 10.0 0.00 0.07 0.07 71 1011.9
20260506020235 55 231 6.0 9.0 0.00 0.07 0.07 69 1011.9
20260506015732 55 228 7.0 8.0 0.00 0.07 0.07 69 1011.6
20260506015230 56 231 6.0 10.0 0.00 0.07 0.07 68 1011.8
20260506014726 56 221 7.0 13.0 0.00 0.07 0.07 67 1011.7
20260506014222 56 235 5.0 11.0 0.00 0.07 0.07 66 1011.6
20260506013720 57 228 8.0 10.0 0.00 0.07 0.07 66 1011.7
20260506013217 57 228 9.0 11.0 0.00 0.07 0.07 66 1011.6
20260506012713 57 228 13.0 15.0 0.00 0.07 0.07 65 1011.7
20260506012211 57 226 9.0 15.0 0.00 0.07 0.07 67 1011.6
20260506011708 57 237 7.0 15.0 0.00 0.07 0.07 66 1011.2
20260506011204 57 230 11.0 16.0 0.00 0.07 0.07 65 1011.3
20260506010702 58 252 9.0 14.0 0.00 0.07 0.07 64 1011.4
20260506010159 59 223 9.0 10.0 0.00 0.07 0.07 64 1011.2
20260506005656 58 227 9.0 12.0 0.00 0.07 0.07 64 1011.2
20260506005153 58 243 6.0 13.0 0.00 0.07 0.07 63 1011.3
20260506004649 58 227 6.0 15.0 0.00 0.07 0.07 63 1011.1
20260506004147 59 249 7.0 12.0 0.00 0.07 0.07 60 1011.2
20260506003643 59 233 9.0 13.0 0.00 0.07 0.07 60 1011.1
20260506003139 58 240 8.0 16.0 0.00 0.07 0.07 60 1011.1
20260506002635 59 234 8.0 11.0 0.00 0.07 0.07 60 1011.0
20260506002131 58 235 10.0 16.0 0.00 0.07 0.07 59 1011.1
20260506001627 59 225 9.0 14.0 0.00 0.07 0.07 58 1011.2
20260506001125 60 217 5.0 11.0 0.00 0.07 0.07 57 1011.3
20260506000622 60 199 5.0 8.0 0.00 0.07 0.07 54 1011.2
20260506000119 59 201 8.0 10.0 0.00 0.07 0.07 58 1011.4
20260505235617 58 225 8.0 11.0 0.00 0.07 0.07 63 1011.3
20260505235114 58 227 6.0 10.0 0.00 0.07 0.07 61 1011.3
20260505234611 57 219 5.0 9.0 0.00 0.07 0.07 64 1011.6
20260505234107 58 216 7.0 7.0 0.00 0.07 0.07 63 1011.6
20260505233605 58 233 6.0 14.0 0.00 0.07 0.07 67 1011.6
20260505233102 57 219 8.0 14.0 0.00 0.07 0.07 67 1011.0
20260505232600 55 212 2.0 9.0 0.00 0.07 0.07 70 1011.1
20260505232057 55 244 2.0 9.0 0.00 0.07 0.07 71 1011.3
20260505231554 55 238 4.0 12.0 0.00 0.07 0.07 73 1011.4
20260505231053 55 224 11.0 13.0 0.00 0.07 0.07 70 1011.1
20260505230550 55 240 7.0 17.0 0.00 0.07 0.07 71 1011.2
20260505230046 56 239 11.0 15.0 0.00 0.07 0.07 70 1011.1
20260505225543 56 240 9.0 13.0 0.00 0.07 0.07 69 1010.9
20260505225039 57 251 13.0 15.0 0.00 0.07 0.07 68 1011.0
20260505224536 57 244 9.0 15.0 0.00 0.07 0.07 69 1011.0
20260505224034 57 242 14.0 16.0 0.00 0.07 0.07 71 1011.3
20260505223531 56 238 9.0 13.0 0.00 0.07 0.07 71 1011.3
20260505223027 55 231 8.0 12.0 0.00 0.07 0.07 74 1010.9
20260505222523 55 256 8.0 11.0 0.00 0.07 0.07 73 1011.2
20260505222019 55 230 7.0 11.0 0.05 0.07 0.07 71 1011.4
20260505221517 53 229 4.0 12.0 0.05 0.07 0.07 75 1011.6
20260505221013 55 241 7.0 16.0 0.00 0.06 0.06 71 1011.2
20260505220510 55 249 9.0 14.0 0.00 0.06 0.06 72 1011.3
20260505220008 57 259 5.0 6.0 0.00 0.06 0.06 70 1011.3
20260505215506 53 264 4.0 9.0 0.00 0.06 0.06 78 1011.4
20260505215003 52 262 5.0 10.0 0.05 0.06 0.06 80 1011.4
20260505214502 52 247 6.0 10.0 0.05 0.06 0.06 78 1011.4
20260505213958 53 287 8.0 11.0 0.05 0.06 0.06 76 1011.7
20260505213456 54 307 4.0 8.0 0.05 0.05 0.05 71 1012.0
20260505212952 54 267 6.0 8.0 0.07 0.05 0.05 73 1011.9
20260505212449 53 303 8.0 10.0 0.17 0.04 0.04 72 1012.0
20260505211945 53 295 5.0 19.0 0.19 0.04 0.04 70 1012.0
20260505211443 56 328 10.0 14.0 0.09 0.02 0.02 69 1011.8
20260505210939 59 355 7.0 14.0 0.02 0.00 0.00 60 1011.3
20260505210436 62 255 7.0 15.0 0.00 0.00 0.00 47 1011.1
20260505205933 62 254 11.0 13.0 0.00 0.00 0.00 46 1010.9
20260505205432 62 248 7.0 10.0 0.00 0.00 0.00 44 1011.0
20260505204928 62 249 10.0 20.0 0.00 0.00 0.00 45 1010.9
20260505204426 62 223 8.0 20.0 0.00 0.00 0.00 45 1011.0
20260505203923 64 245 16.0 18.0 0.00 0.00 0.00 42 1010.9
20260505203419 64 233 7.0 20.0 0.00 0.00 0.00 42 1011.0
20260505202915 65 233 8.0 19.0 0.00 0.00 0.00 42 1011.0
20260505202412 65 245 12.0 16.0 0.00 0.00 0.00 41 1010.9
20260505201908 63 216 10.0 24.0 0.00 0.00 0.00 44 1011.2
20260505201406 63 214 11.0 19.0 0.00 0.00 0.00 44 1011.1
20260505200904 65 237 17.0 21.0 0.00 0.00 0.00 41 1011.1
20260505200401 65 223 10.0 17.0 0.00 0.00 0.00 42 1011.2
20260505195856 65 234 15.0 18.0 0.00 0.00 0.00 42 1011.4
20260505195354 64 245 9.0 16.0 0.00 0.00 0.00 43 1011.4
20260505194850 64 254 8.0 19.0 0.00 0.00 0.00 43 1011.4
20260505194348 64 257 9.0 15.0 0.00 0.00 0.00 43 1011.8
20260505193848 64 238 7.0 12.0 0.00 0.00 0.00 43 1011.9
20260505193347 62 227 13.0 17.0 0.00 0.00 0.00 46 1012.1
20260505192844 61 254 9.0 20.0 0.00 0.00 0.00 47 1011.6
20260505192342 61 232 9.0 11.0 0.00 0.00 0.00 46 1011.7
20260505191839 60 228 10.0 16.0 0.00 0.00 0.00 48 1011.8
20260505191338 62 244 9.0 14.0 0.00 0.00 0.00 46 1011.9
20260505190834 61 217 8.0 9.0 0.00 0.00 0.00 47 1011.9
20260505190330 61 247 9.0 14.0 0.00 0.00 0.00 47 1011.8
20260505185825 62 223 7.0 12.0 0.00 0.00 0.00 46 1011.8
20260505185322 60 242 5.0 11.0 0.00 0.00 0.00 47 1011.9
20260505184818 60 251 6.0 16.0 0.00 0.00 0.00 48 1011.9
20260505184315 62 224 17.0 22.0 0.00 0.00 0.00 46 1011.9
20260505183813 61 252 8.0 15.0 0.00 0.00 0.00 46 1011.9
20260505183309 60 245 8.0 15.0 0.00 0.00 0.00 48 1011.8
20260505182806 60 224 9.0 15.0 0.00 0.00 0.00 49 1012.1
20260505182305 61 199 4.0 16.0 0.00 0.00 0.00 47 1011.9
20260505181759 61 234 14.0 18.0 0.00 0.00 0.00 48 1011.7
20260505181257 60 239 13.0 19.0 0.00 0.00 0.00 50 1011.7
20260505180753 59 230 10.0 18.0 0.00 0.00 0.00 51 1011.9
20260505180250 59 252 8.0 15.0 0.00 0.00 0.00 51 1011.6
20260505175746 59 226 14.0 19.0 0.00 0.00 0.00 52 1011.9
20260505175243 59 239 17.0 19.0 0.00 0.00 0.00 51 1012.0
20260505174739 60 221 4.0 13.0 0.00 0.00 0.00 49 1011.6
20260505174237 61 229 16.0 17.0 0.00 0.00 0.00 48 1011.9
20260505173732 60 232 5.0 14.0 0.00 0.00 0.00 49 1011.4
20260505173229 59 223 9.0 16.0 0.00 0.00 0.00 51 1011.6
20260505172726 59 237 13.0 16.0 0.00 0.00 0.00 51 1011.7
20260505172223 58 238 14.0 18.0 0.00 0.00 0.00 53 1011.6
20260505171723 58 229 13.0 15.0 0.00 0.00 0.00 53 1011.8
20260505171221 57 217 9.0 15.0 0.00 0.00 0.00 56 1011.8
20260505170717 58 236 9.0 14.0 0.00 0.00 0.00 53 1011.8
20260505170214 57 237 8.0 15.0 0.00 0.00 0.00 55 1011.8
20260505165709 59 223 10.0 12.0 0.00 0.00 0.00 52 1011.6
20260505165206 57 232 13.0 15.0 0.00 0.00 0.00 55 1011.7
20260505164701 56 248 8.0 14.0 0.00 0.00 0.00 57 1011.8
20260505164158 57 228 9.0 15.0 0.00 0.00 0.00 56 1011.6
20260505163657 57 253 7.0 16.0 0.00 0.00 0.00 55 1011.7
20260505163155 57 247 8.0 14.0 0.00 0.00 0.00 53 1011.6
20260505162652 57 258 7.0 11.0 0.00 0.00 0.00 55 1011.6
20260505162149 56 236 8.0 11.0 0.00 0.00 0.00 56 1011.9
20260505161646 57 231 10.0 11.0 0.00 0.00 0.00 55 1011.7
20260505161143 56 255 11.0 16.0 0.00 0.00 0.00 56 1011.6
20260505160641 56 243 6.0 15.0 0.00 0.00 0.00 56 1011.7
20260505160138 56 236 7.0 15.0 0.00 0.00 0.00 56 1011.6
20260505153118 54 242 7.0 13.0 0.00 0.00 0.00 57 1011.4
20260505152614 54 267 7.0 13.0 0.00 0.00 0.00 59 1011.6
20260505152110 54 255 7.0 14.0 0.00 0.00 0.00 58 1011.6
20260505151605 54 251 6.0 12.0 0.00 0.00 0.00 58 1011.4
20260505151103 54 264 7.0 13.0 0.00 0.00 0.00 59 1011.7
20260505150559 53 263 9.0 11.0 0.00 0.00 0.00 60 1011.8
20260505140525 50 238 7.0 11.0 0.00 0.00 0.00 66 1011.3
20260505124938 45 204 4.0 5.0 0.00 0.00 0.00 78 1010.6
20260505124435 45 202 3.0 5.0 0.00 0.00 0.00 77 1010.9
20260505123931 44 210 3.0 5.0 0.00 0.00 0.00 79 1010.6
20260505123427 44 230 3.0 3.0 0.00 0.00 0.00 78 1010.7
20260505122923 45 210 3.0 5.0 0.00 0.00 0.00 79 1010.6
20260505122421 44 216 3.0 5.0 0.00 0.00 0.00 80 1010.4
20260505121917 45 200 3.0 4.0 0.00 0.00 0.00 79 1010.5
20260505121415 45 183 3.0 3.0 0.00 0.00 0.00 79 1010.4
20260505120910 45 180 3.0 5.0 0.00 0.00 0.00 79 1010.5
20260505120407 45 208 4.0 4.0 0.00 0.00 0.00 78 1010.3
20260505115906 45 224 3.0 5.0 0.00 0.00 0.00 77 1010.6
20260505115403 45 228 4.0 4.0 0.00 0.00 0.00 77 1010.5
20260505114901 46 209 3.0 3.0 0.00 0.00 0.00 77 1010.7
20260505114357 46 156 2.0 3.0 0.00 0.00 0.00 74 1010.4
20260505113853 47 133 1.0 3.0 0.00 0.00 0.00 72 1010.5
20260505113350 48 208 3.0 4.0 0.00 0.00 0.00 71 1010.5
20260505112845 48 226 4.0 6.0 0.00 0.00 0.00 70 1010.5
20260505112344 48 231 5.0 9.0 0.00 0.00 0.00 69 1010.5
20260505111839 48 229 4.0 8.0 0.00 0.00 0.00 69 1010.4
20260505111334 48 264 6.0 8.0 0.00 0.00 0.00 70 1010.3
20260505110830 48 250 3.0 11.0 0.00 0.00 0.00 69 1010.3
20260505110328 48 221 4.0 7.0 0.00 0.00 0.00 71 1010.6
20260505101803 46 197 3.0 3.0 0.00 0.00 0.00 77 1010.0
20260505101258 47 207 3.0 5.0 0.00 0.00 0.00 77 1010.2
20260505100754 47 190 3.0 5.0 0.00 0.00 0.00 76 1010.0
20260505100251 47 188 4.0 5.0 0.00 0.00 0.00 76 1009.9
20260505095747 47 201 4.0 6.0 0.00 0.00 0.00 76 1010.0
20260505095245 47 182 3.0 5.0 0.00 0.00 0.00 76 1009.9
20260505094740 47 218 3.0 4.0 0.00 0.00 0.00 75 1010.3
20260505094237 47 191 2.0 4.0 0.00 0.00 0.00 74 1010.3
20260505093733 48 208 4.0 7.0 0.00 0.00 0.00 73 1010.3
20260505093231 48 216 4.0 7.0 0.00 0.00 0.00 72 1010.3
20260505092728 48 240 5.0 9.0 0.00 0.00 0.00 72 1010.3
20260505092226 48 214 5.0 7.0 0.00 0.00 0.00 72 1010.5
20260505091723 48 227 3.0 6.0 0.00 0.00 0.00 72 1010.6
20260505091221 48 224 3.0 6.0 0.00 0.00 0.00 72 1010.4
20260505090718 48 236 4.0 7.0 0.00 0.00 0.00 73 1010.6
20260505090217 48 220 6.0 9.0 0.00 0.00 0.00 73 1010.6
20260505085714 48 235 6.0 6.0 0.00 0.00 0.00 75 1010.6
20260505085212 48 224 3.0 6.0 0.00 0.00 0.00 75 1010.9
20260505084709 48 227 5.0 5.0 0.00 0.00 0.00 75 1010.7
20260505084208 48 211 3.0 6.0 0.00 0.00 0.00 75 1011.0
20260505083704 48 222 3.0 5.0 0.00 0.00 0.00 77 1011.0
20260505083201 47 239 4.0 5.0 0.00 0.00 0.00 78 1011.1
20260505082657 47 235 5.0 5.0 0.00 0.00 0.00 80 1011.0
20260505082154 46 246 3.0 5.0 0.00 0.00 0.00 82 1011.0
20260505081650 46 245 3.0 4.0 0.00 0.00 0.00 84 1011.0
20260505081148 45 273 2.0 3.0 0.00 0.00 0.00 83 1010.7
20260505080644 45 250 3.0 4.0 0.00 0.00 0.00 82 1010.6